Location: Anumalkud?ru
(16.4847°N, 80.6636°E)
Time: 10:01:54
(UTC+00:00)

UNK - Pass Details

Date: 11 April 2026
Orbit: 653 x 673 km, 98.4° (Epoch: 12 May)

Event Time Altitude Azimuth Distance (km) Brightness Sun altitude
Rises 23:47:59 0° 176° (S) 3,004 7.0 -9.4°
Reaches altitude 10° 23:50:15 10° 180° (S) 2,093 6.2 -8.9°
Maximum altitude 23:54:44 56° 258° (WSW) 798 3.8 -7.9°
Drops below altitude 10° 23:59:14 10° 337° (NNW) 2,099 6.2 -6.8°
Sets 00:01:30 0° 342° (NNW) 3,013 7.0 -6.3°
